TimeEST,TemperatureF,Dew PointF,Humidity,Sea Level PressureIn,VisibilityMPH,Wind Direction,Wind SpeedMPH,Gust SpeedMPH,PrecipitationIn,Events,Conditions,WindDirDegrees,DateUTC
12:53 AM,16.0,6.1,65,30.10,10.0,NW,3.5,-,N/A,,Overcast,310,2013-01-21 05:53:00
1:53 AM,17.1,5.0,59,30.08,10.0,WNW,4.6,-,N/A,,Overcast,300,2013-01-21 06:53:00
2:53 AM,16.0,7.0,68,30.12,10.0,Calm,Calm,-,N/A,,Overcast,0,2013-01-21 07:53:00
3:53 AM,16.0,8.1,71,30.09,10.0,Calm,Calm,-,N/A,,Overcast,0,2013-01-21 08:53:00
4:15 AM,17.6,8.6,68,30.03,10.0,SW,5.8,-,N/A,,Overcast,230,2013-01-21 09:15:00
4:53 AM,17.1,9.0,71,30.06,10.0,SW,4.6,-,N/A,,Overcast,230,2013-01-21 09:53:00
5:08 AM,17.6,8.6,68,30.01,10.0,SW,5.8,-,N/A,,Overcast,230,2013-01-21 10:08:00
5:53 AM,18.0,10.0,71,30.04,10.0,SW,9.2,-,N/A,,Overcast,230,2013-01-21 10:53:00
6:19 AM,17.6,10.4,73,29.99,10.0,SW,8.1,-,N/A,,Overcast,230,2013-01-21 11:19:00
6:53 AM,18.0,10.9,74,30.04,8.0,WSW,10.4,-,0.00,Snow,Light Snow,240,2013-01-21 11:53:00
7:18 AM,17.6,10.4,73,29.98,6.0,WSW,12.7,-,0.00,Snow,Light Snow,240,2013-01-21 12:18:00
7:53 AM,18.0,10.9,74,30.02,6.0,WSW,11.5,-,0.00,Snow,Light Snow,250,2013-01-21 12:53:00
8:28 AM,17.6,12.2,79,29.97,4.0,WSW,6.9,-,0.00,Snow,Light Snow,250,2013-01-21 13:28:00
8:33 AM,17.6,12.2,79,29.98,1.8,West,10.4,-,0.00,Snow,Light Snow,260,2013-01-21 13:33:00
8:37 AM,17.6,12.2,79,29.97,0.8,WSW,12.7,-,0.00,Snow,Light Snow,250,2013-01-21 13:37:00
8:53 AM,17.1,12.9,84,30.02,0.5,West,15.0,-,0.00,Fog-Snow,Light Snow,260,2013-01-21 13:53:00
8:58 AM,17.6,12.2,79,29.98,0.8,West,20.7,26.5,0.00,Snow,Light Snow,270,2013-01-21 13:58:00
9:21 AM,15.8,12.2,86,29.98,1.0,WNW,8.1,-,0.00,Snow,Light Snow,290,2013-01-21 14:21:00
9:26 AM,15.8,12.2,86,29.97,2.0,WNW,5.8,-,0.00,Snow,Light Snow,290,2013-01-21 14:26:00
9:34 AM,15.8,10.4,79,29.98,5.0,West,8.1,-,0.00,Snow,Light Snow,270,2013-01-21 14:34:00
9:43 AM,15.8,12.2,86,29.98,1.8,WNW,5.8,-,0.00,Snow,Light Snow,290,2013-01-21 14:43:00
9:49 AM,15.8,12.2,86,29.98,0.8,West,5.8,-,0.00,Snow,Light Snow,280,2013-01-21 14:49:00
9:53 AM,16.0,12.0,84,30.02,0.8,West,6.9,-,0.00,Snow,Light Snow,280,2013-01-21 14:53:00
9:59 AM,17.6,12.2,79,29.98,1.5,West,6.9,-,0.00,Snow,Light Snow,270,2013-01-21 14:59:00
10:06 AM,15.8,10.4,79,29.98,0.8,West,9.2,-,0.00,Snow,Light Snow,280,2013-01-21 15:06:00
10:16 AM,15.8,10.4,79,29.98,1.5,WNW,6.9,-,0.00,Snow,Light Snow,290,2013-01-21 15:16:00
10:23 AM,17.6,12.2,79,29.98,3.0,West,8.1,-,0.00,Snow,Light Snow,270,2013-01-21 15:23:00
10:30 AM,17.6,12.2,79,29.97,1.8,West,9.2,-,0.00,Snow,Light Snow,260,2013-01-21 15:30:00
10:53 AM,16.0,12.9,88,30.02,0.2,NW,5.8,-,0.00,Fog-Snow,Snow,320,2013-01-21 15:53:00
11:00 AM,15.8,12.2,86,29.97,0.5,NNW,6.9,-,0.00,Fog-Snow,Snow,330,2013-01-21 16:00:00
11:16 AM,15.8,10.4,79,29.97,1.0,NW,9.2,-,0.01,Snow,Light Snow,310,2013-01-21 16:16:00
11:35 AM,15.8,10.4,79,29.96,1.5,NW,9.2,-,0.01,Snow,Light Snow,310,2013-01-21 16:35:00
11:43 AM,15.8,10.4,79,29.96,2.5,NNW,6.9,-,0.01,Snow,Light Snow,330,2013-01-21 16:43:00
11:53 AM,15.1,9.0,77,30.00,4.0,NW,8.1,-,0.01,Snow,Light Snow,320,2013-01-21 16:53:00
12:03 PM,15.8,8.6,73,29.95,1.8,WNW,8.1,-,0.00,Snow,Light Snow,300,2013-01-21 17:03:00
12:08 PM,15.8,10.4,79,29.95,0.8,WNW,9.2,-,0.00,Snow,Light Snow,300,2013-01-21 17:08:00
12:26 PM,15.8,10.4,79,29.95,0.5,NNW,12.7,-,0.00,Fog-Snow,Snow,330,2013-01-21 17:26:00
12:39 PM,15.8,8.6,73,29.94,1.0,NW,10.4,-,0.00,Snow,Light Snow,320,2013-01-21 17:39:00
12:44 PM,15.8,8.6,73,29.94,2.0,NW,9.2,-,0.00,Snow,Light Snow,320,2013-01-21 17:44:00
12:51 PM,15.8,8.6,73,29.94,5.0,WNW,10.4,-,0.00,,Haze,300,2013-01-21 17:51:00
12:53 PM,16.0,9.0,74,29.99,6.0,WNW,9.2,-,0.00,,Haze,300,2013-01-21 17:53:00
1:09 PM,17.6,8.6,68,29.93,7.0,NW,11.5,19.6,N/A,,Overcast,310,2013-01-21 18:09:00
1:29 PM,15.8,8.6,73,29.93,2.5,NNW,11.5,-,0.00,Snow,Light Snow,330,2013-01-21 18:29:00
1:38 PM,15.8,8.6,73,29.93,1.5,NW,11.5,-,0.00,Snow,Light Snow,320,2013-01-21 18:38:00
1:53 PM,15.1,8.1,74,29.98,1.5,NW,8.1,-,0.00,Snow,Light Snow,320,2013-01-21 18:53:00
2:06 PM,14.0,8.6,79,29.94,0.8,NW,13.8,-,0.00,Snow,Light Snow,320,2013-01-21 19:06:00
2:14 PM,14.0,6.8,73,29.94,1.5,NW,11.5,-,0.00,Snow,Light Snow,310,2013-01-21 19:14:00
2:31 PM,14.0,8.6,79,29.95,0.8,NW,9.2,19.6,0.00,Snow,Light Snow,310,2013-01-21 19:31:00
2:41 PM,15.8,8.6,73,29.95,1.8,WNW,10.4,-,0.00,Snow,Light Snow,300,2013-01-21 19:41:00
2:43 PM,15.8,6.8,68,29.95,4.0,WNW,11.5,-,0.00,,Haze,300,2013-01-21 19:43:00
2:50 PM,14.0,6.8,73,29.95,1.8,NW,11.5,-,0.00,Snow,Light Snow,310,2013-01-21 19:50:00
2:53 PM,14.0,7.0,74,30.00,1.0,NW,12.7,-,0.00,Snow,Light Snow,320,2013-01-21 19:53:00
3:02 PM,14.0,8.6,79,29.96,0.8,NNW,11.5,-,0.00,Snow,Light Snow,330,2013-01-21 20:02:00
3:10 PM,14.0,6.8,73,29.96,1.8,NW,13.8,18.4,0.00,Snow,Light Snow,310,2013-01-21 20:10:00
3:12 PM,14.0,5.0,67,29.96,3.0,NW,12.7,18.4,0.00,Snow,Light Snow,310,2013-01-21 20:12:00
3:37 PM,12.2,3.2,67,29.97,8.0,WNW,13.8,19.6,0.00,,Overcast,300,2013-01-21 20:37:00
3:53 PM,12.9,3.9,67,30.03,7.0,WNW,15.0,25.3,0.00,,Overcast,300,2013-01-21 20:53:00
4:53 PM,10.9,1.9,67,30.05,5.0,WNW,18.4,27.6,0.00,Snow,Light Snow,300,2013-01-21 21:53:00
5:02 PM,10.4,3.2,73,30.00,1.5,WNW,16.1,24.2,0.00,Snow,Light Snow,290,2013-01-21 22:02:00
5:12 PM,10.4,1.4,67,30.00,4.0,WNW,17.3,25.3,0.00,Snow,Light Snow,290,2013-01-21 22:12:00
5:26 PM,10.4,-0.4,62,30.01,10.0,West,19.6,23.0,0.00,,Scattered Clouds,280,2013-01-21 22:26:00
5:53 PM,10.0,-0.0,64,30.06,10.0,NW,10.4,-,0.00,,Mostly Cloudy,310,2013-01-21 22:53:00
6:53 PM,8.1,-2.9,61,30.08,10.0,WNW,11.5,20.7,0.00,,Clear,290,2013-01-21 23:53:00
7:53 PM,7.0,-2.0,67,30.10,10.0,WNW,9.2,-,N/A,,Scattered Clouds,300,2013-01-22 00:53:00
8:15 PM,6.8,-0.4,72,30.05,8.0,WNW,9.2,-,N/A,,Mostly Cloudy,290,2013-01-22 01:15:00
8:43 PM,6.8,-0.4,72,30.05,6.0,WNW,9.2,-,0.00,Snow,Light Snow,290,2013-01-22 01:43:00
8:53 PM,7.0,1.0,77,30.11,4.0,WNW,8.1,-,0.00,Snow,Light Snow,290,2013-01-22 01:53:00
9:04 PM,6.8,1.4,79,30.06,2.5,WNW,6.9,-,0.00,Snow,Light Snow,300,2013-01-22 02:04:00
9:15 PM,6.8,1.4,79,30.06,3.0,WNW,6.9,-,0.00,Snow,Light Snow,300,2013-01-22 02:15:00
9:53 PM,5.0,-2.0,73,30.12,9.0,WNW,8.1,-,0.00,,Overcast,300,2013-01-22 02:53:00
10:08 PM,5.0,-0.4,78,30.07,4.0,WNW,8.1,-,0.00,Snow,Light Snow,300,2013-01-22 03:08:00
10:53 PM,5.0,-0.9,76,30.13,10.0,WNW,8.1,-,0.00,,Overcast,300,2013-01-22 03:53:00
11:25 PM,5.0,-0.4,78,30.09,2.5,WNW,6.9,-,0.00,Snow,Light Snow,300,2013-01-22 04:25:00
11:27 PM,5.0,-0.4,78,30.09,3.0,WNW,9.2,-,0.00,Snow,Light Snow,300,2013-01-22 04:27:00
11:44 PM,3.2,-2.2,78,30.09,6.0,WNW,8.1,-,0.00,,Haze,300,2013-01-22 04:44:00
11:53 PM,3.9,-2.0,76,30.14,9.0,WNW,10.4,-,0.00,,Overcast,300,2013-01-22 04:53:00